Weather reports worldwide

Advertisment
Cap Corse, France (7785): temperature & dewpoint: 20.09.2020 13:00:00 - 26.09.2020 13:00:00 (CEST)Cap Corse, France (7785): wind speed & gusts: 20.09.2020 13:00:00 - 26.09.2020 13:00:00 (CEST)Cap Corse, France (7785): wind direction: 20.09.2020 13:00:00 - 26.09.2020 13:00:00 (CEST)Cap Corse, France (7785): reduced air pressure: 20.09.2020 13:00:00 - 26.09.2020 13:00:00 (CEST)Cap Corse, France (7785): visibility: 20.09.2020 13:00:00 - 26.09.2020 13:00:00 (CEST)Cap Corse, France (7785): precipitation: 20.09.2020 13:00:00 - 26.09.2020 13:00:00 (CEST)
Date & Time tt [°C] td [°C] ff [km/h] ff [kn] fx [km/h] fx [kn] dd ppp [hPa] vv [km] rr [mm]
26.09.2020 13:00:00 - - - - - - - - - -
26.09.2020 12:00:00 18,6 9,4 54 29 91 49 W 1000,3 - 0,0
26.09.2020 11:00:00 18,8 7,9 55 30 75 41 W 1000,0 20 0,0
26.09.2020 10:00:00 18,8 9,3 43 23 67 36 WNW 999,9 - 0,0
26.09.2020 09:00:00 18,0 10,1 49 26 81 44 WNW 999,1 - 0,0
26.09.2020 08:00:00 18,8 9,3 38 21 54 29 WNW 998,8 20 0,0
26.09.2020 07:00:00 18,5 5,3 33 18 48 26 WNW 998,5 - 0,0
26.09.2020 06:00:00 18,3 8,8 35 19 54 29 W 997,7 - 0,0
26.09.2020 05:00:00 17,7 7,7 40 22 76 41 W 997,5 - 0,0
26.09.2020 04:00:00 16,6 8,0 58 32 85 46 W 996,3 - 0,0
26.09.2020 03:00:00 16,7 9,4 64 34 93 50 W 996,1 - 0,0
26.09.2020 02:00:00 17,1 9,8 55 30 85 46 W 997,6 - 0,0
26.09.2020 01:00:00 17,4 10,5 66 36 94 51 WNW 997,4 - 0,0
26.09.2020 00:00:00 18,1 11,6 72 39 93 50 WNW 996,5 - 0,0
25.09.2020 23:00:00 17,9 10,0 67 36 98 53 WNW 997,3 - 0,0
25.09.2020 22:00:00 18,6 10,7 71 39 99 54 WNW 997,9 - 0,0
25.09.2020 21:00:00 18,6 10,2 79 43 116 63 WNW 997,4 - 0,0
25.09.2020 20:00:00 18,4 9,7 88 47 129 69 WNW 997,2 - 0,0
25.09.2020 19:00:00 18,7 10,3 98 53 149 81 WNW 995,9 - 0,0
25.09.2020 18:00:00 18,5 10,6 114 62 152 82 W 992,6 - 0,0
25.09.2020 17:00:00 19,2 10,5 100 54 131 71 W 995,7 - 0,0
25.09.2020 16:00:00 19,3 9,5 97 53 134 72 W 996,2 - 0,0
25.09.2020 15:00:00 19,2 8,8 102 55 146 79 W 995,8 - 0,0
25.09.2020 14:00:00 19,7 10,1 104 56 157 85 W 996,6 12 0,0
25.09.2020 13:00:00 20,8 9,1 95 52 138 74 W 998,6 - 0,0
25.09.2020 12:00:00 20,6 8,9 82 45 110 60 W 999,2 - 0,0
25.09.2020 11:00:00 20,0 15,0 79 42 112 61 WNW 1000,1 - 0,0
25.09.2020 10:00:00 21,9 15,5 81 44 110 59 W 999,5 - 0,0
25.09.2020 09:00:00 22,3 13,9 74 40 103 56 W 999,8 - 0,0
25.09.2020 08:00:00 22,3 14,7 80 43 108 58 W 999,1 10 0,0
25.09.2020 07:00:00 22,4 16,9 78 42 117 63 W 999,8 - 0,0
25.09.2020 06:00:00 22,3 18,1 76 41 120 65 W 1000,3 - 0,2
25.09.2020 05:00:00 22,9 18,0 71 39 140 76 W 1000,5 - 0,0
25.09.2020 04:00:00 22,8 18,1 76 41 114 62 W 1001,1 - 0,0
25.09.2020 03:00:00 20,8 18,4 39 21 - - W 1003,0 - 0,4
25.09.2020 02:00:00 19,5 18,3 40 22 82 44 WSW 1004,9 - 2,2
25.09.2020 01:00:00 18,9 17,6 30 16 74 40 SW 1005,4 - 7,9
25.09.2020 00:00:00 19,3 17,6 41 22 102 55 WSW 1006,9 - 5,6
24.09.2020 23:00:00 21,0 19,3 - - - - - 1008,1 - 1,6
24.09.2020 22:00:00 22,3 17,7 30 16 43 23 S 1007,5 - 0,0
24.09.2020 21:00:00 19,6 17,0 19 10 67 36 SW 1008,5 - 0,2
24.09.2020 20:00:00 20,7 17,7 24 13 68 37 SW 1009,3 15 2,2
24.09.2020 19:00:00 22,1 16,6 26 14 66 36 WSW 1009,7 - 0,2
24.09.2020 18:00:00 23,9 19,2 25 14 55 30 W 1009,7 - 0,6
24.09.2020 17:00:00 24,3 19,4 27 15 44 24 WSW 1010,1 15 0,0
24.09.2020 16:00:00 25,8 19,2 11 6 39 21 W 1011,0 - 0,0
24.09.2020 15:00:00 27,7 18,1 12 6 36 20 W 1011,3 - 0,0
24.09.2020 14:00:00 27,3 16,6 16 9 33 18 W 1011,5 - 0,0
24.09.2020 13:00:00 27,1 17,0 12 6 31 17 W 1011,7 - 0,0
24.09.2020 12:00:00 26,4 15,1 16 8 32 17 W 1012,3 - 0,0
24.09.2020 11:00:00 26,7 16,3 13 7 22 12 W 1012,3 20 0,0
24.09.2020 10:00:00 25,9 14,7 14 7 23 13 W 1012,1 - 0,0
24.09.2020 09:00:00 24,4 16,6 10 5 37 20 SW 1011,4 - 0,0
24.09.2020 08:00:00 22,9 16,0 24 13 47 25 WSW 1011,0 20 0,0
24.09.2020 07:00:00 22,9 16,9 24 13 49 27 W 1010,9 - 0,0
24.09.2020 06:00:00 22,9 16,9 28 15 48 26 WSW 1010,9 - 0,0
24.09.2020 05:00:00 22,6 16,4 22 12 48 26 WSW 1011,2 - 0,0
24.09.2020 04:00:00 22,7 16,5 21 11 55 30 W 1011,3 - 0,0
24.09.2020 03:00:00 22,7 16,9 27 14 50 27 W 1011,3 - 0,0
24.09.2020 02:00:00 23,0 17,5 30 16 53 28 W 1011,7 15 0,0
24.09.2020 01:00:00 23,1 17,1 32 18 64 35 W 1011,5 - 0,0
24.09.2020 00:00:00 23,4 17,2 32 18 64 35 W 1011,3 - 0,0
23.09.2020 23:00:00 23,5 17,7 42 23 68 37 W 1011,0 25 0,0
23.09.2020 22:00:00 23,3 17,3 38 20 70 38 W 1011,1 - 0,0
23.09.2020 21:00:00 23,2 17,4 45 25 77 41 W 1010,2 - 0,0
23.09.2020 20:00:00 23,1 17,6 48 26 82 44 W 1010,2 25 0,0
23.09.2020 19:00:00 23,1 17,1 51 28 81 44 W 1009,9 - 0,0
23.09.2020 18:00:00 23,2 17,0 43 23 74 40 W 1010,1 - 0,0
23.09.2020 17:00:00 22,6 17,3 50 27 69 38 W 1010,3 25 0,0
23.09.2020 16:00:00 22,2 18,0 49 26 75 41 W 1010,5 - 0,0
23.09.2020 15:00:00 23,4 16,9 44 24 67 36 W 1010,4 - 0,0
23.09.2020 14:00:00 23,8 16,8 48 26 66 36 W 1010,6 - 0,0
23.09.2020 13:00:00 25,0 17,5 22 12 43 23 W 1011,2 - 0,0
23.09.2020 12:00:00 24,4 17,9 16 9 41 22 WSW 1011,7 - 0,0
23.09.2020 11:00:00 23,2 17,4 22 12 47 26 W 1011,7 25 0,0
23.09.2020 10:00:00 20,9 16,5 25 13 44 24 SW 1012,0 - 0,0
23.09.2020 09:00:00 20,4 17,0 25 14 52 28 WSW 1011,5 - 0,0
23.09.2020 08:00:00 19,9 17,7 31 17 53 28 W 1010,9 25 0,0
23.09.2020 07:00:00 19,5 16,9 26 14 58 31 W 1011,3 - 0,0
23.09.2020 06:00:00 19,1 16,0 31 17 68 37 WSW 1011,8 - 0,0
23.09.2020 05:00:00 19,6 17,2 23 12 50 27 W 1011,9 - 1,6
23.09.2020 04:00:00 20,4 17,8 42 23 62 34 W 1011,8 - 0,2
23.09.2020 03:00:00 20,5 15,9 19 10 43 23 WSW 1012,3 - 0,0
23.09.2020 02:00:00 20,4 16,4 26 14 44 24 WSW 1012,3 12 0,0
23.09.2020 01:00:00 19,9 17,1 19 10 28 15 SW 1012,9 - 0,0
23.09.2020 00:00:00 19,5 16,9 20 11 39 21 WSW 1013,3 - 0,0
22.09.2020 23:00:00 20,0 17,4 14 8 29 16 WSW 1013,6 - 0,0
22.09.2020 22:00:00 19,4 17,4 13 7 20 11 WSW 1014,0 - 0,0
22.09.2020 21:00:00 19,9 17,5 6 3 44 24 W 1014,1 - 1,6
22.09.2020 20:00:00 21,7 16,9 19 10 - - W 1013,2 - 0,0
22.09.2020 19:00:00 21,9 16,6 18 10 39 21 W 1013,3 - 0,0
22.09.2020 18:00:00 22,3 16,3 19 10 33 18 W 1013,3 - 0,0
22.09.2020 17:00:00 23,4 16,2 16 9 26 14 WNW 1013,9 - 0,0
22.09.2020 16:00:00 23,6 15,9 15 8 34 18 W 1014,0 - 0,0
22.09.2020 15:00:00 24,6 17,3 11 6 24 13 W 1014,1 - 0,0
22.09.2020 14:00:00 22,5 17,0 4 2 29 16 NE 1014,5 25 0,0
22.09.2020 13:00:00 23,6 18,0 14 7 33 18 W 1015,5 - 0,0
22.09.2020 12:00:00 22,7 18,9 21 11 36 20 W 1015,3 - 0,0
22.09.2020 11:00:00 22,7 17,4 24 13 36 19 WSW 1015,0 25 0,0
22.09.2020 10:00:00 19,8 17,6 22 12 52 28 WSW 1015,4 - 0,0
22.09.2020 09:00:00 18,9 16,9 30 16 51 28 SW 1014,5 - 1,6
22.09.2020 08:00:00 20,4 16,6 36 19 - - W 1014,6 25 0,0
22.09.2020 07:00:00 20,9 17,5 15 8 37 20 W 1014,5 - 0,0
22.09.2020 06:00:00 20,5 17,9 22 12 44 24 WSW 1014,2 - 1,8
22.09.2020 05:00:00 20,6 16,4 26 14 42 23 WSW 1014,4 - 0,2
22.09.2020 04:00:00 21,3 18,1 17 9 38 20 WSW 1014,9 - 0,0
22.09.2020 03:00:00 21,1 18,7 18 10 42 23 W 1014,9 - 0,0
22.09.2020 02:00:00 21,3 18,1 26 14 47 25 WSW 1015,2 - 0,0
22.09.2020 01:00:00 21,5 17,9 22 12 - - WSW 1015,6 - 0,0
22.09.2020 00:00:00 20,9 18,3 19 10 35 19 WSW 1015,7 - 0,0
21.09.2020 23:00:00 20,8 17,6 21 12 37 20 WSW 1015,9 15 0,0
21.09.2020 22:00:00 20,6 17,4 21 11 36 19 WSW 1015,7 - 0,0
21.09.2020 21:00:00 20,1 17,7 18 10 26 14 WSW 1015,6 - 0,0
21.09.2020 20:00:00 20,5 18,4 19 10 29 16 WSW 1015,5 - 0,0
21.09.2020 19:00:00 20,2 17,4 17 9 24 13 WSW 1015,2 - 0,0
21.09.2020 18:00:00 19,2 16,2 19 10 74 40 W 1015,6 - -
21.09.2020 17:00:00 23,2 18,1 10 6 - - W 1015,4 - 0,0
21.09.2020 16:00:00 24,8 19,0 8 4 21 11 NW 1015,4 - 0,0
21.09.2020 15:00:00 25,5 18,7 10 5 18 10 NW 1015,2 - 0,0
21.09.2020 14:00:00 25,1 18,3 8 4 13 7 ENE 1015,7 - 0,0
21.09.2020 13:00:00 24,8 18,7 8 4 11 6 ENE 1016,3 - 0,0
21.09.2020 12:00:00 23,9 18,1 6 3 21 11 NNW 1016,3 - 0,0
21.09.2020 11:00:00 25,2 18,6 11 6 20 11 W 1015,9 20 0,0
21.09.2020 10:00:00 24,2 18,8 4 2 8 5 W 1015,9 - 0,0
21.09.2020 09:00:00 24,5 18,7 3 1 8 4 E 1015,5 - 0,0
21.09.2020 08:00:00 21,6 19,0 0 0 7 4 N 1015,3 13 0,0
21.09.2020 07:00:00 20,2 17,6 6 3 19 11 SE 1015,0 - 0,0
21.09.2020 06:00:00 20,8 17,8 13 7 21 12 W 1014,9 - 0,0
21.09.2020 05:00:00 20,4 17,6 17 9 27 15 W 1015,0 13 0,0
21.09.2020 04:00:00 20,5 16,3 18 10 39 21 W 1014,9 - 0,0
21.09.2020 03:00:00 19,8 17,6 24 13 54 29 WSW 1015,3 - 0,0
21.09.2020 02:00:00 19,8 17,2 29 16 46 25 WSW 1015,7 - 4,5
21.09.2020 01:00:00 20,2 17,2 5 3 39 21 NW 1016,0 - 2,4
21.09.2020 00:00:00 21,3 16,5 13 7 51 28 ESE 1015,8 - 0,0
20.09.2020 23:00:00 21,9 19,1 22 12 31 17 SE 1015,5 15 0,0
20.09.2020 22:00:00 23,5 20,8 23 12 44 24 WNW 1015,4 - 0,0
20.09.2020 21:00:00 22,9 19,7 24 13 46 25 WSW 1014,6 - 0,0
20.09.2020 20:00:00 21,5 18,7 24 13 40 21 WSW 1014,3 15 0,0
20.09.2020 19:00:00 23,5 19,8 13 7 24 13 W 1014,6 - 0,0
20.09.2020 18:00:00 25,1 19,7 14 8 30 16 W 1014,4 - 0,0
20.09.2020 17:00:00 25,8 19,4 14 8 32 17 W 1014,2 - 0,0
20.09.2020 16:00:00 22,4 19,6 23 12 - - SE 1014,7 - 0,0
20.09.2020 15:00:00 20,4 17,8 27 15 - - SE 1015,1 - 7,1
20.09.2020 14:00:00 25,9 19,1 6 3 27 15 N 1014,7 18 0,0
20.09.2020 13:00:00 27,2 18,8 10 6 13 7 NW 1014,9 - 0,0

tt = temperature
td = dewpoint
ff = wind speed
fx = gusts
dd = wind direction
ppp = reduced air pressure
vv = visibility
rr = precipitation

Next stations